User: anonymous   Login
Location: ???????
(54.9996°N, 37.9529°E)
Time: 11:42:48
(UTC+00:00)
Language:

YAOGAN 11 - Orbit

View from above orbital plane
View from above orbital plane
View from above satellite
View from above satellite

Ground track
Ground track

The orbit data is extracted from the following two-line orbital elements,

1 37165U 10047A   24171.77532141  .00001258  00000-0  17583-3 0  9992
2 37165  98.4346 350.6669 0037651  54.2551 306.2151 14.79090263740434
Epoch (UTC): 19 June 2024 18:36:27
Eccentricity: 0.0037651
inclination: 98.4346°
perigee height: 606 km
apogee height: 658 km
right ascension of ascending node: 350.6669°
argument of perigee: 54.2551°
revolutions per day: 14.79090263
mean anomaly at epoch: 306.2151°
orbit number at epoch: 74043

The dashed part of the orbit path shows where the satellite is in the earth's shadow,  

DLR